Location: Jangalapalle
(16.8036°N, 80.6370°E)
Time: 11:11:25
(UTC+00:00)

COSMOS 2406 - Pass Details

Date: 05 August 2024
Orbit: 846 x 859 km, 71.0° (Epoch: 09 September)

Event Time Altitude Azimuth Distance (km) Brightness Sun altitude
Rises 14:29:01 0° 344° (NNW) 3,402 7.0 -18.9°
Reaches altitude 10° 14:31:28 10° 346° (NNW) 2,468 6.1 -19.5°
Maximum altitude 14:37:08 82° 73° (ENE) 860 3.1 -20.7°
Enters shadow 14:39:50 33° 158° (SSE) 1,398 3.9 -21.3°
